Temperature
22 23 23 22 22 22 22 22 21 22 22 22 22 21 21 21 20 20 19 19 18 18 17 17 17 16 16 16 16 16 16 16 15 16 15 15 15 15 15 14 14 14 14 14
21 22 22 22 22 22 22 22 22 22 22 23 22 21 21 20 20 19 19 18 18 17 17 17 17 16 16 16 16 16 15 15 15 15 15 15 15 14 14 14 14 14 14 13
20 22 21 20 22 22 22 22 22 21 21 22 22 21 21 20 19 19 19 18 18 17 17 17 16 16 16 16 15 15 15 15 15 15 15 15 14 14 14 14 14 13 13 13
19 20 19 21 23 22 22 22 22 22 22 22 21 21 20 19 19 19 18 18 17 17 17 17 16 16 16 15 15 15 15 15 15 14 14 14 14 14 14 13 13 13 13 13
19 19 19 21 21 22 21 21 22 21 21 21 20 20 19 19 18 18 17 17 17 17 16 16 16 16 15 15 15 15 14 14 14 14 14 14 14 14 13 13 13 13 13 13
18 18 18 20 21 21 21 20 21 21 20 20 20 18 18 18 17 17 16 16 16 16 16 16 16 15 15 15 15 14 14 14 14 14 14 14 13 13 13 13 13 13 12 12
17 17 18 19 20 20 18 18 20 20 19 19 19 18 18 17 17 16 16 16 16 15 15 15 15 15 15 15 14 14 14 14 13 13 13 13 13 13 13 13 12 12 12 12
17 17 17 19 19 19 18 19 18 18 18 18 18 17 17 16 16 15 15 15 15 15 15 15 15 15 15 14 14 14 14 13 13 13 13 13 13 13 12 12 12 12 12 12
17 17 18 18 18 18 18 18 18 17 17 17 17 16 16 16 15 15 15 15 14 14 14 14 14 14 14 14 14 14 13 13 13 13 12 12 12 12 12 12 12 12 11 11
17 18 18 18 17 17 17 17 17 16 17 17 16 16 15 15 15 15 14 14 14 14 14 14 14 14 14 14 13 13 13 13 12 12 12 12 12 12 12 12 12 12 11 11
17 17 17 17 17 16 16 16 16 16 16 16 15 15 15 15 15 14 14 14 14 13 13 13 13 13 13 13 13 13 13 12 12 12 12 12 12 12 12 12 12 12 11 11
16 17 16 16 16 15 15 15 15 15 15 15 15 15 14 14 14 14 13 13 13 13 13 13 13 13 13 13 13 12 12 12 12 12 12 11 11 11 11 11 11 11 11 11
16 15 15 15 15 14 14 14 14 14 14 15 14 14 14 14 14 13 13 13 13 12 12 12 12 12 12 12 12 12 12 11 11 11 11 11 11 11 11 11 11 11 11 11
14 14 14 14 14 14 14 14 14 14 14 14 14 13 13 13 13 13 12 12 12 12 12 12 12 12 12 12 12 11 11 11 11 11 11 11 11 11 11 11 11 11 10 10
14 13 13 13 13 13 13 13 13 13 13 13 13 13 13 12 12 12 12 12 11 11 11 11 11 11 11 11 11 11 11 11 11 11 11 11 11 11 10 10 10 10 10 10
13 13 13 13 12 12 13 12 12 13 13 13 12 12 12 12 11 11 11 11 11 11 10 10 10 11 11 11 11 10 10 10 10 10 10 10 10 10 10 10 10 10 10 9
12 12 12 12 12 12 12 12 12 12 12 12 11 11 11 11 11 11 11 10 10 10 10 10 10 10 10 10 10 10 10 10 10 9 9 9 10 10 10 9 9 9 9 9
11 11 11 11 11 11 11 11 11 11 11 11 11 10 10 10 10 10 10 10 10 10 10 9 9 9 10 10 10 10 10 9 9 9 9 9 9 9 9 9 9 9 9 9
10 10 10 10 10 10 10 10 10 10 10 10 10 10 10 10 10 10 10 9 9 9 9 9 9 9 9 9 9 9 9 9 9 9 9 9 9 9 9 9 9 9 8 8
10 10 10 9 9 9 9 9 10 10 10 9 9 9 9 9 9 9 9 9 9 9 9 8 9 9 9 9 9 9 9 8 8 8 8 8 8 8 8 8 8 8 8 8
9 9 9 9 9 9 9 9 9 9 9 9 9 9 9 9 9 9 9 8 8 8 8 8 8 8 8 8 8 8 8 8 8 8 8 8 8 8 8 8 8 8 8 8
8 8 8 8 8 8 8 8 8 8 8 8 8 8 8 8 8 8 8 8 8 8 8 8 8 8 8 8 8 8 8 8 7 8 8 8 8 8 8 8 8 7 7 7
8 8 8 8 7 7 8 8 8 8 8 8 8 8 8 7 7 7 7 7 7 7 7 7 7 7 7 7 7 7 7 7 7 7 7 7 7 7 7 7 7 7 7 7
7 7 7 7 7 7 7 7 7 7 7 7 7 7 7 7 7 7 7 7 7 7 7 7 7 7 7 7 7 7 6 6 7 7 7 7 7 7 7 7 7 7 7 7
6 6 6 6 6 6 6 6 6 6 6 6 6 6 6 7 7 6 7 7 7 7 7 7 7 6 6 6 6 6 6 6 6 6 6 6 6 6 6 6 6 6 6 6
6 6 6 6 6 6 5 5 5 6 6 6 6 6 6 6 6 6 6 6 6 6 6 6 6 6 6 6 6 6 6 6 6 6 5 5 5 6 6 6 6 6 6 6
5 5 5 5 5 5 5 5 5 5 5 5 5 5 5 5 5 5 5 5 5 5 5 5 5 5 5 5 5 5 5 5 5 5 5 5 5 5 5 5 5 5 5 5
Wind_Speed
10 9 8 8 8 8 9 9 7 5 4 2 2 3 3 2 3 4 3 3 3 3 3 3 3 2 3 3 3 3 3 4 4 3 4 4 4 4 3 3 3 3 3 3
12 11 10 11 10 10 11 10 10 8 6 1 1 2 2 2 1 2 3 3 2 2 3 3 3 2 3 3 3 3 3 4 4 3 4 5 4 3 3 3 2 3 3 3
10 10 10 11 10 10 9 9 9 8 4 1 1 1 1 1 2 2 2 2 2 2 2 1 2 3 3 2 2 3 3 3 3 3 3 4 4 3 4 4 3 2 3 3
8 9 11 4 2 5 7 8 6 5 2 1 1 0 1 0 1 0 1 1 1 1 1 1 1 1 2 2 2 2 3 3 3 3 3 4 4 4 4 3 3 3 3 3
6 9 9 6 4 4 6 6 5 4 2 1 0 0 1 1 2 2 3 2 1 1 1 1 1 2 3 3 2 2 3 3 3 3 3 4 4 5 4 4 3 3 3 4
7 8 7 2 2 4 5 5 1 1 1 1 1 2 1 3 3 2 2 2 1 0 0 0 0 1 2 3 3 2 2 2 3 3 4 4 5 4 3 3 4 4 4 4
11 10 6 3 3 3 4 1 3 2 2 1 1 2 1 2 2 2 1 1 1 1 1 1 1 2 2 2 3 2 2 2 3 3 4 4 4 4 3 3 4 4 4 4
8 9 6 2 3 2 1 3 3 3 3 2 2 2 2 2 1 1 0 1 1 1 1 1 2 2 1 2 2 2 2 3 2 2 3 3 4 4 4 4 4 4 4 4
3 4 1 1 2 3 4 3 3 3 3 2 2 2 2 1 1 1 1 2 2 1 1 2 1 1 2 2 2 2 2 3 3 2 2 3 4 4 4 4 4 4 4 4
6 5 3 2 2 3 4 4 4 5 4 2 2 2 2 2 2 2 1 2 2 1 2 2 2 2 2 2 2 2 2 3 3 3 2 2 2 3 3 4 4 4 4 4
8 5 4 3 2 3 4 4 5 5 5 4 4 4 3 3 3 2 2 2 2 2 3 3 2 2 2 2 2 3 3 3 3 2 2 2 2 2 3 3 4 4 4 4
7 6 6 4 4 6 5 5 6 6 6 5 4 4 4 4 3 3 3 2 2 3 3 3 2 2 2 3 3 3 3 3 3 2 2 2 3 2 1 2 3 4 5 5
8 7 7 6 6 7 7 7 7 7 7 5 5 4 5 4 3 3 3 3 3 3 3 2 2 2 2 2 3 3 3 3 2 3 3 3 3 4 2 1 0 2 4 5
6 6 8 7 7 7 7 8 7 7 7 6 5 5 5 4 4 4 4 3 3 3 3 2 2 2 2 3 3 3 3 3 3 3 3 3 4 4 4 4 2 1 2 4
7 7 7 6 7 7 7 7 8 8 7 6 5 5 5 5 5 5 4 3 2 3 3 3 3 3 2 3 3 3 3 3 3 3 3 3 3 3 3 3 3 2 1 1
7 7 7 7 8 8 8 8 8 8 7 6 5 5 5 5 5 5 4 3 3 4 4 4 4 3 3 3 3 3 3 4 3 3 3 3 3 3 3 4 4 4 4 3
7 7 7 7 8 8 8 8 8 8 7 6 6 5 5 5 5 5 4 3 3 4 4 3 3 2 3 3 3 2 3 3 5 3 3 3 4 4 4 4 4 4 4 5
7 7 7 8 8 8 8 8 8 8 7 6 6 6 6 6 6 5 4 3 3 4 3 3 3 3 3 3 2 2 2 3 3 3 3 3 3 3 3 3 4 4 3 4
7 7 7 8 8 8 8 8 8 7 7 6 6 6 6 6 5 4 4 4 4 3 3 2 3 3 2 2 2 2 2 3 3 3 3 4 4 3 3 3 4 4 4 4
7 7 7 8 8 8 8 8 7 7 6 6 6 6 6 5 5 4 4 4 3 2 2 2 3 2 2 2 2 2 3 3 3 3 3 3 3 3 3 3 3 3 3 4
7 7 7 7 7 7 7 8 7 7 7 6 6 6 6 5 4 3 3 3 2 1 1 2 2 2 2 2 3 2 3 3 3 3 3 3 3 3 3 3 3 3 3 3
6 6 7 6 7 7 6 7 6 6 6 6 6 6 5 4 3 2 2 2 1 1 1 2 1 2 2 2 2 2 3 3 3 3 3 3 3 3 3 3 3 4 3 3
6 7 7 6 6 6 7 6 6 5 5 6 5 5 4 3 2 2 2 2 1 2 2 2 2 3 3 3 3 3 3 4 3 3 3 3 3 3 3 3 3 3 3 3
6 6 6 6 6 6 6 6 5 5 5 5 4 4 4 2 2 2 1 2 2 2 2 3 3 4 3 2 3 3 3 3 3 3 2 2 2 2 2 2 2 2 2 2
6 6 6 6 5 5 5 6 5 5 4 3 4 4 3 2 2 1 1 1 2 2 2 3 4 4 3 2 2 2 2 2 2 2 2 2 2 2 2 2 2 2 2 3
6 5 5 5 4 4 4 4 4 4 3 3 3 3 2 1 1 1 1 1 2 2 2 2 3 3 3 2 2 2 2 2 2 2 2 2 2 2 2 2 3 3 3 3
5 5 4 4 4 4 4 4 4 4 3 3 3 2 2 1 1 0 0 1 1 1 1 1 1 1 1 1 1 1 1 1 1 2 2 2 2 2 3 3 3 3 2 3
Wind_Direction
272 272 276 275 264 252 255 261 263 266 266 238 140 127 127 126 138 138 140 139 142 147 151 161 184 188 174 179 177 182 179 180 184 180 162 163 170 177 173 167 166 163 160 155
271 266 260 267 263 256 252 256 259 262 268 283 122 115 127 137 155 167 155 159 164 163 162 175 183 182 165 177 190 189 188 191 174 168 161 158 171 174 160 156 169 157 160 160
272 270 266 255 250 247 249 252 257 261 262 265 218 191 168 163 170 213 175 167 165 169 177 178 188 183 174 179 184 177 175 163 154 153 148 155 168 167 162 167 178 177 168 156
269 270 256 249 257 251 249 254 250 254 253 265 294 157 110 133 185 243 121 143 147 166 159 169 170 172 175 162 171 178 168 159 153 158 157 162 166 175 176 176 177 183 180 165
262 261 261 249 256 259 255 257 249 245 240 248 112 237 197 122 82 45 34 41 47 75 110 165 167 173 170 172 185 187 180 167 160 163 163 167 178 183 185 186 178 179 189 171
257 261 258 263 339 325 284 257 333 322 269 263 245 252 209 87 71 53 37 32 18 1 96 177 198 191 189 180 185 183 175 174 163 174 172 182 189 186 190 194 182 180 188 186
248 257 258 290 308 302 268 296 37 19 20 345 291 300 32 60 67 60 28 355 359 315 190 204 221 213 200 190 193 179 165 171 178 180 185 188 186 180 185 193 187 189 191 193
238 247 249 295 283 261 40 47 13 354 3 352 330 351 23 38 50 64 336 277 245 248 232 217 225 215 211 199 184 169 167 169 175 181 196 194 177 183 191 187 187 196 199 198
253 253 287 287 310 338 342 340 342 331 331 335 323 332 339 334 294 255 230 242 236 225 250 235 235 214 210 192 163 161 168 173 178 189 200 182 180 189 196 193 196 202 195 196
261 250 272 295 320 312 314 319 324 325 322 310 298 294 299 280 275 274 254 256 233 225 247 247 232 218 203 176 168 173 185 191 189 192 198 182 186 191 194 197 201 205 205 204
270 269 287 290 294 308 306 311 308 314 315 312 304 295 289 280 273 266 263 251 235 230 238 243 222 204 184 187 199 206 207 209 202 198 202 195 193 191 198 202 204 202 201 194
275 288 292 297 319 306 297 290 290 296 295 289 281 280 281 278 278 275 261 254 250 244 242 249 240 217 191 201 210 209 214 213 204 197 201 192 186 185 173 194 208 195 192 191
289 306 305 303 302 296 294 294 291 288 288 288 287 281 276 277 277 276 266 256 260 265 259 255 245 225 213 213 219 216 220 220 201 196 201 206 196 186 195 258 360 193 193 190
295 294 290 290 295 296 295 296 294 287 284 280 282 286 284 283 280 278 268 260 265 271 268 259 237 230 224 211 217 223 219 228 222 206 205 212 209 196 194 194 202 225 223 204
281 276 279 290 292 290 289 288 285 282 283 278 279 284 285 283 281 280 274 265 261 257 257 251 243 235 225 215 212 215 219 224 226 215 213 213 210 200 198 196 195 193 166 208
275 276 277 278 280 283 282 282 283 284 285 283 282 281 281 279 277 277 269 254 245 247 250 243 241 235 227 222 216 206 212 233 238 227 218 213 215 207 202 200 195 194 198 198
271 273 278 280 279 281 284 288 287 287 289 287 285 283 278 275 276 273 266 250 246 251 249 248 250 243 239 232 219 206 204 214 232 240 228 223 219 214 211 206 204 203 205 203
271 273 279 283 286 286 286 287 288 287 286 288 290 283 277 273 269 265 259 256 250 250 241 240 240 236 232 235 228 211 207 211 216 226 231 225 230 223 211 205 207 208 203 206
275 279 284 286 286 286 287 287 286 286 288 283 279 277 274 274 271 264 255 248 242 242 243 238 241 229 226 231 234 211 215 223 221 222 224 231 231 226 217 210 208 209 204 202
281 283 285 287 287 285 287 287 285 282 281 279 277 275 272 269 264 262 250 237 224 226 233 231 225 227 226 219 228 228 230 231 230 221 216 225 231 226 225 223 217 214 211 207
300 297 293 294 296 291 288 288 285 281 281 277 274 275 274 272 270 259 237 236 218 187 218 229 229 229 221 232 237 224 225 230 229 221 216 224 233 228 223 226 228 224 220 220
301 300 296 296 298 300 299 296 289 283 281 281 279 277 278 277 275 272 249 240 209 194 210 215 217 241 242 242 232 225 228 231 227 226 225 225 230 231 230 233 235 233 224 222
299 300 297 294 296 298 299 296 294 291 287 285 280 275 269 263 258 252 254 247 212 226 226 220 233 241 246 228 223 231 227 225 224 227 227 227 230 234 235 239 242 237 226 222
302 304 305 302 300 299 299 304 301 294 292 289 282 279 270 257 258 262 254 250 248 242 227 216 225 238 246 230 221 227 224 225 228 231 227 225 225 233 239 238 244 242 230 223
310 308 309 309 305 302 300 302 302 297 295 295 295 295 291 270 245 241 232 211 227 233 224 219 221 228 224 230 226 221 219 220 231 232 225 229 228 234 242 235 234 236 233 233
321 320 317 310 305 303 300 299 298 299 297 297 300 301 302 303 267 216 204 189 198 235 237 215 211 222 228 226 229 229 226 227 228 229 232 237 235 235 243 236 230 233 233 232
317 316 314 312 310 309 305 300 295 296 297 296 298 303 310 317 318 316 309 195 183 212 237 232 213 214 232 240 252 258 259 248 231 220 225 237 241 240 243 241 240 246 245 239
Height
1494 1491 1492 1494 1494 1494 1497 1497 1502 1500 1497 1495 1495 1498 1501 1503 1505 1507 1509 1511 1512 1513 1514 1516 1517 1517 1518 1519 1520 1521 1523 1524 1526 1527 1529 1531 1532 1534 1536 1537 1538 1539 1540 1541
1496 1490 1491 1494 1492 1492 1493 1493 1494 1495 1496 1492 1495 1497 1500 1502 1505 1506 1507 1509 1510 1512 1513 1514 1515 1515 1516 1517 1517 1518 1520 1521 1523 1524 1526 1528 1530 1531 1533 1535 1536 1537 1537 1538
1501 1491 1492 1497 1489 1489 1490 1489 1491 1495 1495 1492 1494 1496 1499 1501 1503 1505 1506 1507 1508 1510 1511 1512 1513 1513 1514 1515 1516 1516 1517 1519 1520 1522 1523 1525 1527 1529 1530 1531 1532 1534 1535 1536
1501 1498 1506 1491 1482 1483 1485 1486 1486 1488 1490 1492 1494 1496 1498 1500 1502 1503 1504 1505 1506 1508 1508 1509 1510 1511 1512 1513 1513 1514 1515 1516 1517 1519 1520 1522 1523 1525 1526 1528 1529 1531 1532 1533
1502 1502 1496 1487 1483 1483 1486 1487 1485 1487 1489 1491 1493 1495 1497 1499 1500 1501 1503 1503 1505 1505 1506 1507 1508 1508 1509 1510 1511 1512 1513 1513 1514 1516 1517 1518 1520 1521 1523 1525 1526 1527 1528 1530
1502 1504 1502 1491 1483 1483 1485 1489 1486 1487 1489 1491 1492 1496 1498 1498 1498 1499 1500 1501 1502 1503 1504 1505 1505 1506 1507 1508 1508 1509 1510 1511 1511 1512 1514 1515 1516 1518 1520 1522 1523 1524 1525 1526
1501 1500 1492 1487 1485 1486 1495 1494 1488 1488 1489 1491 1492 1495 1496 1496 1497 1498 1499 1499 1500 1501 1501 1502 1503 1504 1504 1505 1506 1506 1507 1508 1509 1509 1511 1512 1514 1515 1517 1518 1520 1521 1522 1523
1495 1499 1497 1487 1486 1488 1490 1488 1489 1489 1490 1491 1492 1493 1494 1495 1496 1496 1497 1497 1498 1498 1499 1500 1500 1501 1501 1502 1503 1503 1504 1505 1506 1507 1508 1509 1510 1512 1513 1515 1516 1517 1519 1520
1491 1493 1488 1487 1487 1487 1487 1488 1489 1490 1490 1490 1491 1492 1492 1493 1494 1494 1495 1495 1496 1496 1496 1497 1497 1498 1498 1499 1500 1500 1501 1502 1503 1504 1505 1506 1507 1508 1510 1511 1512 1514 1515 1516
1486 1485 1485 1486 1486 1487 1488 1488 1488 1489 1489 1489 1489 1490 1491 1491 1492 1492 1492 1492 1492 1492 1492 1493 1494 1495 1495 1496 1497 1498 1498 1499 1500 1501 1502 1503 1504 1505 1506 1507 1508 1510 1511 1512
1484 1484 1485 1485 1486 1487 1487 1487 1487 1487 1487 1488 1488 1488 1488 1489 1489 1489 1489 1489 1489 1489 1489 1490 1490 1491 1491 1492 1493 1494 1495 1496 1496 1497 1498 1499 1500 1501 1502 1503 1504 1505 1506 1507
1485 1484 1484 1485 1485 1486 1485 1485 1485 1485 1485 1485 1485 1485 1486 1486 1486 1486 1486 1486 1486 1486 1486 1486 1487 1487 1488 1489 1490 1490 1491 1492 1492 1493 1494 1495 1496 1498 1499 1500 1501 1502 1503 1504
1483 1482 1482 1483 1484 1484 1483 1483 1483 1483 1483 1482 1482 1482 1482 1482 1482 1482 1482 1482 1482 1482 1482 1483 1483 1483 1484 1485 1486 1487 1487 1488 1489 1489 1490 1491 1492 1494 1494 1496 1497 1498 1499 1500
1481 1481 1480 1480 1481 1481 1480 1480 1480 1480 1479 1479 1479 1479 1479 1478 1478 1478 1478 1478 1478 1478 1479 1479 1479 1479 1480 1481 1482 1483 1484 1484 1485 1486 1487 1487 1488 1490 1491 1491 1492 1493 1495 1496
1479 1478 1478 1478 1478 1478 1477 1477 1476 1476 1476 1475 1475 1475 1475 1474 1474 1474 1474 1474 1474 1474 1474 1475 1475 1475 1476 1477 1478 1479 1479 1480 1481 1482 1483 1484 1484 1485 1486 1488 1488 1489 1490 1491
1476 1475 1475 1475 1475 1475 1474 1473 1473 1472 1471 1471 1470 1470 1470 1470 1469 1469 1469 1469 1469 1469 1470 1470 1471 1471 1472 1473 1474 1474 1475 1476 1478 1478 1479 1480 1480 1481 1482 1483 1484 1485 1485 1486
1472 1472 1472 1472 1471 1471 1470 1470 1469 1468 1467 1467 1466 1466 1466 1465 1465 1464 1464 1465 1465 1465 1465 1466 1466 1467 1468 1469 1470 1470 1471 1472 1473 1474 1475 1475 1476 1477 1478 1479 1480 1480 1481 1482
1469 1469 1469 1468 1467 1467 1466 1465 1465 1464 1463 1462 1462 1461 1461 1460 1460 1459 1459 1459 1460 1460 1461 1462 1462 1463 1464 1465 1466 1467 1467 1468 1469 1470 1471 1472 1472 1473 1474 1475 1475 1476 1477 1477
1464 1464 1464 1464 1463 1462 1461 1461 1460 1459 1458 1458 1457 1456 1455 1455 1455 1455 1455 1455 1455 1455 1456 1457 1458 1459 1459 1460 1461 1462 1463 1464 1465 1466 1467 1468 1469 1469 1470 1471 1471 1472 1472 1473
1460 1460 1459 1459 1458 1458 1457 1456 1455 1454 1453 1453 1452 1451 1451 1450 1450 1450 1450 1450 1450 1451 1452 1453 1454 1454 1455 1456 1457 1458 1459 1460 1461 1461 1462 1463 1464 1465 1466 1466 1467 1468 1468 1468
1456 1456 1455 1454 1453 1453 1452 1451 1450 1449 1448 1448 1447 1446 1446 1445 1446 1446 1445 1445 1446 1447 1448 1449 1449 1450 1450 1451 1452 1453 1454 1455 1456 1457 1458 1459 1460 1460 1461 1462 1462 1463 1463 1463
1453 1452 1451 1450 1449 1448 1447 1446 1445 1444 1443 1442 1442 1441 1441 1441 1441 1441 1441 1441 1441 1443 1444 1444 1445 1445 1446 1447 1447 1448 1449 1450 1451 1453 1454 1455 1455 1456 1456 1457 1457 1458 1458 1458
1450 1449 1447 1446 1445 1443 1442 1441 1440 1439 1438 1437 1437 1436 1436 1436 1436 1436 1436 1437 1437 1438 1439 1439 1440 1441 1442 1442 1443 1444 1445 1446 1447 1448 1449 1450 1450 1451 1452 1452 1453 1453 1453 1453
1446 1445 1443 1442 1441 1439 1438 1437 1436 1434 1433 1433 1432 1432 1432 1431 1431 1431 1432 1432 1433 1434 1434 1435 1436 1437 1438 1438 1439 1439 1440 1441 1442 1443 1444 1445 1446 1446 1447 1447 1447 1447 1448 1448
1443 1441 1440 1438 1437 1435 1434 1433 1431 1430 1429 1428 1428 1427 1427 1427 1427 1427 1428 1428 1429 1429 1430 1431 1431 1432 1433 1434 1435 1435 1436 1437 1438 1439 1440 1440 1441 1441 1442 1442 1442 1442 1443 1443
1440 1438 1437 1435 1434 1432 1431 1429 1428 1427 1426 1424 1423 1423 1423 1423 1423 1423 1424 1424 1425 1425 1426 1427 1427 1428 1429 1430 1431 1432 1432 1433 1434 1435 1435 1436 1436 1437 1437 1437 1437 1438 1438 1438
1437 1435 1433 1431 1430 1429 1427 1426 1425 1423 1422 1421 1420 1420 1420 1420 1420 1420 1420 1420 1421 1422 1423 1423 1424 1424 1425 1426 1427 1428 1428 1429 1430 1430 1431 1431 1431 1432 1432 1432 1432 1432 1432 1432